Wind_Speed
22 23 23 23 22 23 23 24 25 26 27 28 29 31 32 32 32 33 33 33 34 34 35 35 35 35 36 36 37 37 37 37 38 39 40 40 41 42 44 45 45 46
22 23 23 23 23 24 25 26 27 27 28 29 30 31 32 32 33 33 34 34 35 35 36 36 35 35 36 36 36 36 37 37 38 39 41 42 43 44 45 45 45 46
23 24 24 25 26 26 26 27 28 28 28 28 29 30 30 31 32 33 33 34 35 35 35 35 34 34 34 35 35 36 37 38 39 41 42 43 44 45 45 45 46 46
24 24 25 26 27 27 28 28 29 29 29 29 29 29 30 31 31 32 33 33 33 33 33 32 32 32 33 34 35 37 38 40 41 42 43 44 44 45 46 47 47 48
22 24 24 25 26 26 27 28 28 28 28 28 28 29 29 30 30 30 31 31 31 31 30 30 31 32 33 35 36 38 39 40 41 42 43 44 45 46 48 49 49 50
21 22 23 24 25 26 26 27 27 27 28 28 28 28 28 28 28 29 29 29 29 29 29 30 31 32 34 36 37 39 40 41 42 43 45 46 47 49 50 51 52 53
22 23 24 25 26 27 27 28 28 28 28 29 28 28 28 28 28 28 29 28 29 29 30 31 32 34 35 37 38 39 40 42 43 45 46 47 49 50 51 52 53 54
23 24 25 26 26 27 28 29 29 30 29 29 29 28 28 28 29 29 29 29 29 30 31 32 34 35 36 37 38 39 41 43 44 46 47 48 50 51 53 54 55 56
23 24 25 26 26 27 28 28 29 29 29 28 28 28 28 28 29 29 29 30 30 31 32 33 34 35 36 37 39 40 42 44 45 47 49 51 53 55 56 57 58 58
24 25 26 27 27 27 27 27 27 27 27 27 27 27 27 28 29 30 30 30 31 32 32 33 34 35 37 38 40 41 43 45 48 50 52 54 56 57 58 59 60 60
27 28 29 29 29 28 28 28 27 27 27 27 28 28 29 30 30 30 30 30 31 32 33 34 35 36 38 39 41 44 46 48 51 53 55 56 57 58 59 60 60 60
29 31 31 32 31 30 29 29 28 28 28 28 29 30 30 30 30 30 30 30 32 32 33 35 36 37 39 42 44 47 49 51 53 55 56 57 58 59 59 59 60 60
31 33 33 33 33 32 30 29 29 29 29 29 29 29 29 29 29 29 30 31 32 33 34 36 37 39 42 45 47 49 51 53 55 56 57 58 58 59 59 60 61 62
33 34 34 34 33 32 30 29 29 29 29 28 28 28 28 29 30 30 31 32 33 34 35 37 39 42 44 46 48 50 52 54 55 56 57 58 59 60 61 62 62 64
34 35 35 34 33 32 31 30 29 28 28 28 28 29 30 30 30 31 31 32 34 35 37 39 41 43 45 47 50 52 53 55 56 57 57 58 59 60 61 62 64 66
35 36 36 36 34 33 31 30 29 29 29 29 29 30 30 30 30 31 33 34 35 37 38 40 42 45 47 49 51 53 54 55 56 57 58 59 59 60 62 64 66 68
36 37 37 37 35 33 31 30 30 30 30 30 30 30 30 31 32 33 34 35 36 38 39 42 44 46 48 50 52 53 54 55 56 57 58 59 60 61 63 66 68 70
36 37 37 36 34 32 30 30 30 30 30 30 30 30 31 32 33 34 35 36 37 39 41 43 45 47 49 51 52 53 55 56 57 57 58 59 61 64 66 68 69 72
36 37 37 35 33 31 29 29 29 29 30 29 30 31 31 33 34 35 36 37 38 40 43 45 47 48 50 51 53 54 55 56 57 58 59 61 63 66 68 69 71 74
36 36 36 34 31 30 29 29 29 29 30 30 31 32 32 33 34 36 37 38 40 42 44 46 48 49 50 52 53 55 56 57 58 59 61 63 65 67 69 71 73 76
36 36 35 33 31 30 30 30 30 30 30 31 32 33 33 34 35 36 38 39 41 43 45 47 48 50 51 53 54 56 57 58 59 60 62 64 66 68 70 73 75 78
36 36 35 33 31 30 30 30 31 31 31 32 33 33 34 35 36 37 39 40 42 44 46 48 49 50 52 54 55 57 57 58 59 60 63 65 67 69 72 74 77 79
36 36 34 32 31 30 30 31 31 31 32 33 34 34 35 36 37 38 39 41 43 45 47 49 50 51 53 55 56 57 57 58 59 61 64 66 68 71 73 76 78 80
36 35 33 32 31 30 31 31 31 32 33 34 34 35 36 37 38 39 40 42 44 46 48 49 51 52 54 55 56 57 57 58 60 62 65 67 69 72 75 77 79 80
35 34 33 32 31 30 31 31 32 32 33 34 35 36 37 39 40 41 42 44 45 47 49 50 52 53 55 56 56 57 57 58 60 63 65 67 69 72 75 78 80 79
34 33 32 31 30 30 31 31 32 32 34 35 36 37 39 40 41 42 43 44 46 48 50 51 52 54 55 56 57 57 58 59 61 63 65 67 69 72 75 77 79 78
Wind_Direction
331 329 327 324 321 318 314 311 309 307 307 306 305 304 304 303 303 302 302 302 301 301 302 302 302 303 304 305 305 305 306 306 305 305 304 303 303 302 301 300 300 299
328 326 325 323 321 319 316 313 310 308 307 306 304 303 303 302 301 301 300 300 300 301 301 302 303 304 305 305 306 306 306 305 305 304 304 303 303 302 301 301 300 300
326 325 324 322 321 318 315 313 310 308 306 305 304 303 303 302 302 302 302 302 302 303 304 305 306 306 306 306 306 306 306 305 305 305 304 304 303 303 303 303 302 302
322 322 321 319 318 315 312 310 308 307 307 307 306 306 306 305 305 305 305 306 306 306 307 308 307 307 307 307 307 307 306 306 306 306 305 305 306 306 305 305 305 304
320 320 319 317 315 313 313 312 312 312 312 311 310 309 308 307 307 307 307 308 309 310 310 310 309 309 309 308 307 307 307 307 307 307 307 307 307 308 307 307 306 305
326 325 323 321 321 321 321 320 319 318 317 316 315 314 313 311 311 311 311 313 314 314 313 312 311 310 309 309 309 309 309 309 309 309 310 310 310 310 309 308 307 305
335 333 330 328 328 327 326 324 322 321 321 320 319 318 317 315 315 316 317 317 317 316 314 313 312 311 311 310 310 310 311 311 311 311 311 311 311 310 309 308 307 307
337 334 331 330 329 327 326 324 323 322 321 320 319 319 318 317 318 320 320 320 318 317 315 314 313 312 312 312 312 312 313 312 312 312 312 312 312 311 311 310 310 310
337 335 333 332 331 328 326 324 322 320 320 319 318 318 319 320 323 323 322 321 318 317 315 314 313 313 313 314 314 314 313 314 315 316 316 316 315 314 314 313 313 312
341 340 340 340 337 334 330 327 324 323 322 322 321 322 324 326 326 324 321 319 317 316 315 315 315 315 316 316 315 316 317 319 320 320 319 318 317 316 315 314 314 313
344 344 345 345 343 339 336 333 331 330 329 328 328 328 329 328 325 321 319 318 318 318 318 318 318 318 318 318 320 322 323 324 322 321 320 319 318 317 316 315 314 313
346 347 348 347 345 342 340 337 335 334 332 331 331 330 328 325 322 321 321 321 321 321 321 321 321 321 322 324 326 326 325 324 323 322 321 319 318 317 316 315 314 313
348 349 349 347 345 342 340 338 336 334 333 331 330 328 325 323 322 323 324 324 323 323 323 323 324 326 327 328 327 326 325 324 323 322 321 319 318 317 315 314 314 313
349 349 348 346 343 341 339 337 335 333 331 330 329 327 326 326 327 327 326 326 326 326 326 327 328 329 329 328 327 326 325 324 323 322 320 318 317 316 315 315 314 314
348 348 346 344 342 340 339 336 333 331 330 330 330 330 329 329 329 328 328 328 328 329 329 330 329 329 328 327 327 326 326 324 323 321 320 318 317 317 316 316 317 317
347 346 344 342 340 339 337 334 332 331 332 332 332 331 329 329 329 329 330 330 330 330 330 329 329 328 328 328 327 327 326 324 323 321 320 319 318 318 319 319 320 320
345 344 342 341 339 337 334 332 331 331 332 332 331 330 329 329 330 331 331 331 330 329 329 329 329 329 328 328 328 327 325 324 323 322 321 321 321 321 322 322 323 322
343 342 341 339 336 333 331 330 330 330 331 332 330 329 329 330 331 332 331 329 329 329 329 329 329 329 329 328 328 326 326 325 324 323 323 323 324 325 325 325 325 324
341 340 338 336 333 330 328 328 329 330 331 330 329 329 330 331 331 331 330 329 329 329 329 330 330 329 329 329 328 327 327 326 326 326 326 326 327 327 328 327 327 326
338 337 335 334 331 328 328 328 330 332 332 330 329 330 331 331 331 331 330 329 329 329 330 330 330 330 330 329 329 329 328 328 328 328 328 329 330 330 330 329 329 329
335 335 335 333 329 327 327 329 331 333 332 330 329 330 330 331 331 330 330 329 329 330 330 331 331 331 331 330 330 330 330 330 330 330 331 332 332 332 331 331 331 332
335 336 335 331 327 326 327 330 332 332 330 329 329 330 330 330 330 329 329 328 329 330 331 331 331 331 332 332 332 332 332 331 331 332 333 334 333 333 333 334 334 334
336 336 333 329 326 327 328 331 332 331 330 329 329 330 330 330 329 329 329 329 330 331 332 332 332 333 334 334 334 334 333 332 333 334 335 335 335 335 336 336 337 337
336 334 331 327 326 327 329 331 332 331 329 329 329 330 330 330 330 330 330 331 331 332 332 332 333 335 336 336 335 334 333 334 335 336 337 337 337 337 338 339 339 340
335 333 329 327 327 328 330 331 331 329 328 328 329 330 330 331 331 332 332 332 332 332 332 333 335 337 337 337 336 335 335 337 337 338 338 339 339 339 340 341 342 342
335 332 329 327 327 328 330 331 330 328 329 330 331 331 331 332 333 333 333 332 332 332 334 335 337 338 338 337 337 337 337 338 339 340 340 340 340 341 342 344 344 344
Height
5786 5785 5783 5782 5781 5779 5778 5776 5774 5773 5771 5770 5768 5766 5764 5763 5761 5759 5757 5755 5754 5752 5750 5748 5746 5744 5742 5740 5738 5736 5734 5731 5728 5726 5723 5721 5718 5715 5712 5709 5706 5703
5785 5783 5782 5780 5779 5777 5775 5774 5772 5770 5769 5767 5765 5763 5761 5759 5757 5756 5754 5752 5750 5748 5746 5744 5743 5741 5738 5736 5734 5732 5730 5727 5724 5722 5719 5716 5713 5710 5707 5704 5701 5698
5783 5782 5780 5778 5777 5775 5773 5772 5770 5768 5766 5765 5762 5760 5758 5756 5754 5752 5750 5748 5746 5744 5742 5741 5739 5737 5735 5733 5730 5728 5725 5723 5720 5717 5714 5711 5708 5705 5702 5699 5695 5692
5782 5780 5778 5776 5775 5773 5771 5769 5767 5765 5763 5761 5759 5757 5754 5752 5750 5748 5746 5744 5742 5741 5739 5738 5736 5733 5731 5729 5726 5724 5721 5719 5716 5713 5709 5706 5703 5699 5696 5693 5689 5686
5781 5779 5777 5775 5773 5771 5769 5767 5764 5762 5760 5758 5755 5753 5751 5748 5746 5744 5743 5741 5740 5738 5736 5734 5732 5730 5727 5725 5722 5720 5717 5714 5711 5707 5704 5700 5697 5693 5690 5687 5683 5680
5780 5778 5776 5773 5771 5768 5766 5763 5761 5759 5756 5754 5751 5749 5747 5745 5743 5741 5740 5738 5737 5735 5733 5731 5729 5726 5724 5721 5718 5715 5712 5708 5705 5702 5698 5695 5691 5688 5684 5681 5677 5673
5778 5776 5773 5770 5768 5766 5763 5760 5758 5755 5753 5750 5748 5746 5744 5742 5740 5739 5737 5736 5734 5732 5730 5728 5725 5723 5720 5717 5713 5710 5707 5703 5700 5697 5693 5690 5686 5683 5678 5674 5670 5666
5776 5773 5771 5769 5766 5763 5760 5758 5755 5753 5750 5748 5746 5744 5741 5739 5738 5737 5735 5733 5731 5729 5727 5724 5721 5718 5715 5712 5709 5706 5702 5699 5696 5692 5689 5685 5681 5677 5672 5667 5663 5659
5774 5772 5770 5767 5765 5762 5759 5756 5753 5751 5748 5746 5744 5742 5740 5738 5736 5735 5733 5730 5728 5726 5723 5720 5717 5714 5711 5708 5705 5701 5698 5695 5691 5688 5683 5679 5674 5669 5665 5660 5656 5651
5773 5771 5768 5766 5763 5760 5757 5754 5752 5749 5747 5744 5742 5740 5738 5736 5734 5732 5730 5727 5725 5722 5719 5717 5714 5711 5707 5704 5701 5697 5694 5690 5686 5681 5677 5672 5667 5663 5658 5653 5648 5644
5771 5769 5766 5763 5760 5757 5755 5752 5749 5747 5744 5742 5739 5737 5735 5734 5732 5729 5727 5724 5721 5719 5716 5713 5710 5707 5704 5700 5696 5693 5689 5685 5680 5675 5671 5666 5661 5656 5651 5646 5641 5637
5769 5766 5763 5760 5757 5755 5752 5749 5747 5744 5741 5739 5737 5735 5733 5731 5729 5726 5724 5721 5719 5716 5713 5710 5707 5703 5699 5695 5692 5688 5683 5679 5674 5670 5665 5659 5654 5649 5644 5640 5635 5630
5766 5763 5760 5757 5755 5752 5750 5747 5744 5741 5739 5737 5735 5733 5731 5729 5726 5724 5721 5718 5716 5713 5710 5706 5703 5699 5695 5691 5687 5683 5678 5674 5669 5664 5659 5654 5648 5643 5638 5633 5628 5622
5764 5761 5758 5756 5753 5750 5747 5744 5742 5739 5737 5735 5733 5731 5728 5726 5723 5721 5718 5716 5713 5709 5706 5702 5698 5694 5690 5687 5682 5678 5673 5668 5664 5659 5654 5648 5643 5637 5632 5626 5621 5614
5761 5759 5756 5754 5751 5748 5745 5742 5740 5737 5735 5733 5731 5728 5725 5723 5721 5718 5715 5712 5709 5705 5701 5698 5694 5690 5686 5682 5678 5673 5668 5663 5659 5654 5648 5643 5637 5631 5625 5619 5613 5606
5760 5757 5755 5752 5748 5745 5742 5740 5737 5735 5733 5730 5728 5726 5723 5720 5718 5715 5712 5709 5705 5701 5698 5694 5690 5686 5682 5677 5673 5668 5663 5658 5653 5648 5642 5637 5631 5625 5619 5612 5605 5598
5758 5755 5752 5749 5746 5743 5740 5738 5735 5733 5731 5728 5726 5723 5720 5718 5715 5712 5709 5706 5702 5698 5694 5690 5686 5682 5677 5672 5667 5662 5658 5653 5647 5642 5636 5630 5624 5618 5612 5605 5597 5589
5756 5754 5751 5748 5744 5741 5739 5736 5733 5731 5729 5727 5724 5721 5718 5716 5713 5710 5706 5702 5698 5694 5691 5686 5682 5677 5672 5667 5662 5657 5652 5647 5641 5636 5630 5623 5617 5610 5604 5597 5589 5581
5755 5752 5750 5747 5743 5740 5737 5734 5732 5730 5728 5725 5722 5719 5716 5713 5710 5707 5703 5699 5695 5691 5687 5683 5678 5673 5668 5663 5658 5652 5647 5641 5635 5629 5623 5617 5610 5603 5595 5588 5581 5572
5754 5751 5748 5745 5741 5738 5735 5733 5731 5728 5725 5722 5719 5716 5713 5710 5707 5703 5699 5695 5692 5688 5683 5679 5674 5669 5664 5659 5653 5647 5641 5635 5629 5622 5616 5610 5603 5595 5588 5580 5572 5563
5753 5750 5746 5742 5739 5736 5733 5731 5728 5726 5723 5719 5716 5713 5710 5707 5704 5700 5696 5692 5688 5684 5680 5675 5671 5665 5660 5654 5649 5642 5636 5629 5623 5617 5610 5603 5596 5589 5580 5572 5563 5553
5751 5748 5744 5740 5736 5733 5731 5729 5726 5723 5720 5716 5713 5710 5707 5704 5701 5697 5693 5688 5685 5681 5676 5672 5667 5662 5656 5650 5644 5637 5631 5624 5618 5611 5604 5597 5590 5582 5573 5564 5555 5544
5748 5745 5741 5738 5734 5732 5729 5727 5724 5721 5717 5714 5711 5707 5704 5701 5698 5694 5690 5685 5681 5677 5672 5668 5663 5658 5652 5646 5639 5633 5627 5620 5613 5606 5599 5591 5583 5575 5566 5557 5547 5536
5746 5743 5739 5735 5732 5730 5727 5725 5722 5718 5715 5712 5708 5705 5702 5698 5694 5690 5686 5682 5677 5673 5669 5664 5659 5653 5647 5641 5635 5629 5623 5616 5609 5601 5594 5586 5577 5568 5559 5549 5539 5528
5744 5741 5737 5733 5730 5728 5725 5722 5720 5716 5713 5710 5706 5702 5699 5695 5691 5687 5683 5678 5674 5670 5665 5660 5654 5649 5643 5637 5631 5625 5618 5612 5605 5597 5589 5581 5573 5564 5554 5543 5532 5521
5742 5738 5735 5731 5728 5726 5723 5721 5718 5715 5711 5707 5704 5700 5695 5691 5687 5683 5679 5675 5670 5666 5661 5655 5650 5644 5638 5633 5626 5620 5613 5607 5600 5593 5585 5577 5569 5560 5550 5539 5528 5516